Time,TemperatureF,DewpointF,PressureIn,WindDirection,WindDirectionDegrees,WindSpeedMPH,WindSpeedGustMPH,Humidity,HourlyPrecipIn,Conditions,Clouds,dailyrainin,SoftwareType,DateUTC
2013-05-04 00:02:00,36.1,34.3,29.96,WSW,243,2.0,3.0,93,0.00,,,0.00,Wunderground v.1.15,2013-05-04 05:02:00,
2013-05-04 00:07:00,36.0,34.2,29.96,West,269,3.0,3.0,93,0.00,,,0.00,Wunderground v.1.15,2013-05-04 05:07:00,
2013-05-04 00:12:00,36.0,34.2,29.95,NW,306,2.0,4.0,93,0.00,,,0.00,Wunderground v.1.15,2013-05-04 05:12:00,
2013-05-04 00:17:00,36.0,34.2,29.95,WSW,241,2.0,4.0,93,0.00,,,0.00,Wunderground v.1.15,2013-05-04 05:17:00,
2013-05-04 00:22:00,36.0,34.4,29.95,WSW,240,2.0,3.0,94,0.00,,,0.00,Wunderground v.1.15,2013-05-04 05:22:00,
2013-05-04 00:27:00,35.9,34.1,29.95,West,274,2.0,3.0,93,0.00,,,0.00,Wunderground v.1.15,2013-05-04 05:27:00,
2013-05-04 00:32:00,35.9,34.3,29.94,WSW,257,1.0,3.0,94,0.00,,,0.00,Wunderground v.1.15,2013-05-04 05:32:00,
2013-05-04 00:38:00,35.7,33.9,29.94,West,273,1.0,4.0,93,0.00,,,0.01,Wunderground v.1.15,2013-05-04 05:38:00,
2013-05-04 00:43:00,35.7,33.9,29.94,WNW,284,3.0,3.0,93,0.00,,,0.01,Wunderground v.1.15,2013-05-04 05:43:00,
2013-05-04 00:48:00,35.6,33.8,29.94,West,270,3.0,3.0,93,0.04,,,0.02,Wunderground v.1.15,2013-05-04 05:48:00,
2013-05-04 00:53:00,35.5,33.9,29.94,WNW,289,3.0,3.0,94,0.04,,,0.02,Wunderground v.1.15,2013-05-04 05:53:00,
2013-05-04 00:58:00,35.3,33.7,29.94,WSW,255,3.0,4.0,94,0.04,,,0.02,Wunderground v.1.15,2013-05-04 05:58:00,
2013-05-04 01:04:00,35.2,33.6,29.94,West,277,1.0,3.0,94,0.04,,,0.03,Wunderground v.1.15,2013-05-04 06:04:00,
2013-05-04 01:09:00,35.0,33.4,29.94,West,269,2.0,4.0,94,0.04,,,0.03,Wunderground v.1.15,2013-05-04 06:09:00,
2013-05-04 01:14:00,34.9,33.3,29.93,WNW,284,1.0,2.0,94,0.04,,,0.03,Wunderground v.1.15,2013-05-04 06:14:00,
2013-05-04 01:19:00,34.9,33.3,29.93,WSW,240,1.0,3.0,94,0.00,,,0.03,Wunderground v.1.15,2013-05-04 06:19:00,
2013-05-04 01:24:00,34.9,33.6,29.93,WNW,288,3.0,3.0,95,0.00,,,0.03,Wunderground v.1.15,2013-05-04 06:24:00,
2013-05-04 01:30:00,35.0,33.4,29.93,West,259,2.0,2.0,94,0.00,,,0.03,Wunderground v.1.15,2013-05-04 06:30:00,
2013-05-04 01:35:00,35.0,33.4,29.93,WSW,248,0.0,2.0,94,0.00,,,0.03,Wunderground v.1.15,2013-05-04 06:35:00,
2013-05-04 01:40:00,35.0,33.4,29.92,WNW,288,2.0,2.0,94,0.00,,,0.04,Wunderground v.1.15,2013-05-04 06:40:00,
2013-05-04 01:45:00,35.1,33.5,29.92,WNW,295,4.0,4.0,94,0.00,,,0.04,Wunderground v.1.15,2013-05-04 06:45:00,
2013-05-04 01:50:00,35.0,33.4,29.92,SW,229,1.0,2.0,94,0.00,,,0.04,Wunderground v.1.15,2013-05-04 06:50:00,
2013-05-04 01:55:00,35.1,33.5,29.92,WSW,243,1.0,2.0,94,0.00,,,0.04,Wunderground v.1.15,2013-05-04 06:55:00,
2013-05-04 02:00:00,35.1,33.5,29.92,WNW,288,2.0,2.0,94,0.00,,,0.04,Wunderground v.1.15,2013-05-04 07:00:00,
2013-05-04 02:05:00,35.2,33.6,29.92,WNW,294,2.0,4.0,94,0.00,,,0.04,Wunderground v.1.15,2013-05-04 07:05:00,
2013-05-04 02:10:00,35.3,33.7,29.91,West,277,2.0,2.0,94,0.00,,,0.04,Wunderground v.1.15,2013-05-04 07:10:00,
2013-05-04 02:15:00,35.3,33.7,29.91,West,274,4.0,6.0,94,0.00,,,0.04,Wunderground v.1.15,2013-05-04 07:15:00,
2013-05-04 02:20:00,35.4,33.8,29.91,WNW,284,2.0,3.0,94,0.00,,,0.04,Wunderground v.1.15,2013-05-04 07:20:00,
2013-05-04 02:25:00,35.4,33.8,29.91,WSW,256,3.0,5.0,94,0.00,,,0.04,Wunderground v.1.15,2013-05-04 07:25:00,
2013-05-04 02:30:00,35.4,33.8,29.91,WSW,255,3.0,4.0,94,0.00,,,0.04,Wunderground v.1.15,2013-05-04 07:30:00,
2013-05-04 02:35:00,35.5,34.2,29.90,West,273,3.0,4.0,95,0.00,,,0.04,Wunderground v.1.15,2013-05-04 07:35:00,
2013-05-04 02:40:00,35.5,34.2,29.90,WNW,287,1.0,2.0,95,0.00,,,0.04,Wunderground v.1.15,2013-05-04 07:40:00,
2013-05-04 02:45:00,35.6,34.3,29.90,WSW,257,2.0,3.0,95,0.00,,,0.04,Wunderground v.1.15,2013-05-04 07:45:00,
2013-05-04 02:50:00,35.5,34.2,29.90,SW,225,1.0,3.0,95,0.00,,,0.04,Wunderground v.1.15,2013-05-04 07:50:00,
2013-05-04 02:55:00,35.5,33.9,29.90,West,274,2.0,6.0,94,0.00,,,0.04,Wunderground v.1.15,2013-05-04 07:55:00,
2013-05-04 03:01:00,35.6,34.3,29.90,WNW,283,1.0,3.0,95,0.00,,,0.04,Wunderground v.1.15,2013-05-04 08:01:00,
2013-05-04 03:06:00,35.6,34.0,29.90,WNW,299,3.0,5.0,94,0.00,,,0.04,Wunderground v.1.15,2013-05-04 08:06:00,
2013-05-04 03:11:00,35.7,34.1,29.90,West,270,1.0,5.0,94,0.00,,,0.04,Wunderground v.1.15,2013-05-04 08:11:00,
2013-05-04 03:16:00,35.7,34.4,29.90,West,281,2.0,5.0,95,0.00,,,0.04,Wunderground v.1.15,2013-05-04 08:16:00,
2013-05-04 03:21:00,35.7,34.1,29.90,WSW,245,1.0,3.0,94,0.00,,,0.04,Wunderground v.1.15,2013-05-04 08:21:00,
2013-05-04 03:26:00,35.7,34.1,29.90,West,260,1.0,3.0,94,0.00,,,0.04,Wunderground v.1.15,2013-05-04 08:26:00,
2013-05-04 03:31:00,35.7,34.1,29.90,WSW,257,3.0,4.0,94,0.00,,,0.04,Wunderground v.1.15,2013-05-04 08:31:00,
2013-05-04 03:36:00,35.7,34.1,29.90,West,265,2.0,4.0,94,0.00,,,0.04,Wunderground v.1.15,2013-05-04 08:36:00,
2013-05-04 03:41:00,35.7,34.1,29.90,WNW,282,1.0,2.0,94,0.00,,,0.05,Wunderground v.1.15,2013-05-04 08:41:00,
2013-05-04 03:46:00,35.6,34.0,29.89,WNW,287,1.0,3.0,94,0.00,,,0.05,Wunderground v.1.15,2013-05-04 08:46:00,
2013-05-04 03:51:00,35.4,33.8,29.89,West,262,2.0,3.0,94,0.00,,,0.05,Wunderground v.1.15,2013-05-04 08:51:00,
2013-05-04 03:56:00,35.3,33.7,29.89,WSW,250,1.0,3.0,94,0.00,,,0.05,Wunderground v.1.15,2013-05-04 08:56:00,
2013-05-04 04:01:00,35.2,33.6,29.89,WNW,282,2.0,2.0,94,0.00,,,0.06,Wunderground v.1.15,2013-05-04 09:01:00,
2013-05-04 04:06:00,35.2,33.9,29.89,WSW,257,0.0,2.0,95,0.00,,,0.06,Wunderground v.1.15,2013-05-04 09:06:00,
2013-05-04 04:11:00,35.2,33.9,29.89,SW,221,1.0,1.0,95,0.00,,,0.06,Wunderground v.1.15,2013-05-04 09:11:00,
2013-05-04 04:16:00,35.2,33.9,29.89,West,259,1.0,2.0,95,0.00,,,0.06,Wunderground v.1.15,2013-05-04 09:16:00,
2013-05-04 04:21:00,35.2,33.9,29.89,SW,236,0.0,1.0,95,0.00,,,0.06,Wunderground v.1.15,2013-05-04 09:21:00,
2013-05-04 04:26:00,35.2,33.9,29.89,WNW,288,1.0,4.0,95,0.00,,,0.06,Wunderground v.1.15,2013-05-04 09:26:00,
2013-05-04 04:31:00,35.1,33.8,29.89,West,278,2.0,2.0,95,0.00,,,0.06,Wunderground v.1.15,2013-05-04 09:31:00,
2013-05-04 04:36:00,35.1,33.8,29.89,WSW,258,0.0,2.0,95,0.00,,,0.06,Wunderground v.1.15,2013-05-04 09:36:00,
2013-05-04 04:41:00,35.2,33.9,29.89,West,259,1.0,1.0,95,0.00,,,0.06,Wunderground v.1.15,2013-05-04 09:41:00,
2013-05-04 04:46:00,35.2,33.9,29.89,WNW,282,1.0,3.0,95,0.00,,,0.06,Wunderground v.1.15,2013-05-04 09:46:00,
2013-05-04 04:51:00,35.2,33.9,29.89,SW,235,1.0,2.0,95,0.00,,,0.06,Wunderground v.1.15,2013-05-04 09:51:00,
2013-05-04 04:56:00,35.2,33.9,29.89,West,259,1.0,3.0,95,0.00,,,0.06,Wunderground v.1.15,2013-05-04 09:56:00,
2013-05-04 05:01:00,35.1,33.8,29.88,WNW,294,1.0,2.0,95,0.00,,,0.06,Wunderground v.1.15,2013-05-04 10:01:00,
2013-05-04 05:06:00,35.1,33.8,29.89,West,263,1.0,2.0,95,0.00,,,0.06,Wunderground v.1.15,2013-05-04 10:06:00,
2013-05-04 05:11:00,35.2,33.9,29.88,WSW,253,0.0,1.0,95,0.00,,,0.06,Wunderground v.1.15,2013-05-04 10:11:00,
2013-05-04 05:16:00,35.2,33.9,29.89,West,271,3.0,3.0,95,0.00,,,0.06,Wunderground v.1.15,2013-05-04 10:16:00,
2013-05-04 05:21:00,35.2,33.9,29.88,West,266,1.0,1.0,95,0.00,,,0.07,Wunderground v.1.15,2013-05-04 10:21:00,
2013-05-04 05:26:00,35.1,33.8,29.88,WSW,252,1.0,2.0,95,0.00,,,0.07,Wunderground v.1.15,2013-05-04 10:26:00,
2013-05-04 05:31:00,35.2,33.9,29.88,West,278,2.0,3.0,95,0.00,,,0.07,Wunderground v.1.15,2013-05-04 10:31:00,
2013-05-04 05:36:00,35.2,33.9,29.88,West,279,1.0,3.0,95,0.00,,,0.07,Wunderground v.1.15,2013-05-04 10:36:00,
2013-05-04 05:41:00,35.2,33.9,29.88,WNW,287,1.0,3.0,95,0.00,,,0.07,Wunderground v.1.15,2013-05-04 10:41:00,
2013-05-04 05:46:00,35.3,34.0,29.88,WNW,288,1.0,3.0,95,0.00,,,0.07,Wunderground v.1.15,2013-05-04 10:46:00,
2013-05-04 05:51:00,35.3,34.0,29.88,WNW,293,2.0,2.0,95,0.00,,,0.07,Wunderground v.1.15,2013-05-04 10:51:00,
2013-05-04 05:56:00,35.3,34.0,29.88,WNW,297,0.0,4.0,95,0.00,,,0.07,Wunderground v.1.15,2013-05-04 10:56:00,
2013-05-04 06:01:00,35.3,34.0,29.88,WSW,243,1.0,1.0,95,0.00,,,0.07,Wunderground v.1.15,2013-05-04 11:01:00,
2013-05-04 06:06:00,35.4,34.1,29.88,WSW,242,1.0,2.0,95,0.00,,,0.07,Wunderground v.1.15,2013-05-04 11:06:00,
2013-05-04 06:11:00,35.5,34.2,29.88,West,269,1.0,1.0,95,0.00,,,0.07,Wunderground v.1.15,2013-05-04 11:11:00,
2013-05-04 06:16:00,35.6,34.6,29.88,SW,236,1.0,2.0,96,0.00,,,0.07,Wunderground v.1.15,2013-05-04 11:16:00,
2013-05-04 06:21:00,35.6,34.6,29.88,SW,228,1.0,1.0,96,0.00,,,0.07,Wunderground v.1.15,2013-05-04 11:21:00,
2013-05-04 06:26:00,35.7,34.7,29.88,WSW,255,1.0,2.0,96,0.00,,,0.07,Wunderground v.1.15,2013-05-04 11:26:00,
2013-05-04 06:31:00,35.7,34.7,29.88,SW,233,1.0,2.0,96,0.00,,,0.07,Wunderground v.1.15,2013-05-04 11:31:00,
2013-05-04 06:36:00,35.8,34.8,29.88,West,259,1.0,2.0,96,0.00,,,0.07,Wunderground v.1.15,2013-05-04 11:36:00,
2013-05-04 06:41:00,35.9,34.9,29.88,SW,225,1.0,2.0,96,0.00,,,0.07,Wunderground v.1.15,2013-05-04 11:41:00,
2013-05-04 06:46:00,36.0,35.0,29.88,SW,226,1.0,2.0,96,0.00,,,0.07,Wunderground v.1.15,2013-05-04 11:46:00,
2013-05-04 06:51:00,36.0,35.0,29.88,SW,232,1.0,1.0,96,0.00,,,0.07,Wunderground v.1.15,2013-05-04 11:51:00,
2013-05-04 06:56:00,36.1,35.1,29.88,West,273,1.0,2.0,96,0.00,,,0.07,Wunderground v.1.15,2013-05-04 11:56:00,
2013-05-04 07:02:00,36.3,35.3,29.88,WSW,240,0.0,1.0,96,0.00,,,0.07,Wunderground v.1.15,2013-05-04 12:02:00,
2013-05-04 07:07:00,36.3,35.3,29.88,SW,221,0.0,2.0,96,0.00,,,0.07,Wunderground v.1.15,2013-05-04 12:07:00,
2013-05-04 07:12:00,36.4,35.4,29.88,WNW,287,1.0,1.0,96,0.00,,,0.07,Wunderground v.1.15,2013-05-04 12:12:00,
2013-05-04 07:18:00,36.5,35.2,29.88,WSW,240,0.0,1.0,95,0.00,,,0.07,Wunderground v.1.15,2013-05-04 12:18:00,
2013-05-04 07:23:00,36.5,35.2,29.88,SW,236,0.0,1.0,95,0.00,,,0.07,Wunderground v.1.15,2013-05-04 12:23:00,
2013-05-04 07:28:00,36.7,35.4,29.88,West,267,1.0,2.0,95,0.00,,,0.07,Wunderground v.1.15,2013-05-04 12:28:00,
2013-05-04 07:33:00,36.7,35.4,29.88,WSW,253,0.0,2.0,95,0.00,,,0.07,Wunderground v.1.15,2013-05-04 12:33:00,
2013-05-04 07:38:00,36.8,35.5,29.88,WSW,253,1.0,2.0,95,0.00,,,0.07,Wunderground v.1.15,2013-05-04 12:38:00,
2013-05-04 07:43:00,36.9,35.3,29.88,WSW,250,2.0,3.0,94,0.00,,,0.07,Wunderground v.1.15,2013-05-04 12:43:00,
2013-05-04 07:48:00,37.0,35.4,29.88,SW,218,0.0,3.0,94,0.00,,,0.07,Wunderground v.1.15,2013-05-04 12:48:00,
2013-05-04 07:53:00,37.1,35.5,29.88,WNW,293,3.0,3.0,94,0.00,,,0.07,Wunderground v.1.15,2013-05-04 12:53:00,
2013-05-04 07:58:00,37.2,35.6,29.88,West,274,0.0,3.0,94,0.00,,,0.07,Wunderground v.1.15,2013-05-04 12:58:00,
2013-05-04 08:03:00,37.2,35.6,29.88,West,274,3.0,3.0,94,0.00,,,0.07,Wunderground v.1.15,2013-05-04 13:03:00,
2013-05-04 08:08:00,37.1,35.3,29.88,West,264,3.0,5.0,93,0.00,,,0.07,Wunderground v.1.15,2013-05-04 13:08:00,
2013-05-04 08:13:00,37.1,35.5,29.87,West,271,1.0,3.0,94,0.00,,,0.07,Wunderground v.1.15,2013-05-04 13:13:00,
2013-05-04 08:18:00,37.1,35.3,29.87,West,269,3.0,4.0,93,0.00,,,0.07,Wunderground v.1.15,2013-05-04 13:18:00,
2013-05-04 08:23:00,37.0,35.2,29.87,WNW,282,1.0,5.0,93,0.00,,,0.07,Wunderground v.1.15,2013-05-04 13:23:00,
2013-05-04 08:28:00,37.2,35.6,29.87,NW,314,2.0,5.0,94,0.00,,,0.07,Wunderground v.1.15,2013-05-04 13:28:00,
2013-05-04 08:34:00,37.3,35.5,29.87,NW,313,2.0,4.0,93,0.00,,,0.07,Wunderground v.1.15,2013-05-04 13:34:00,
2013-05-04 08:38:00,37.5,35.7,29.87,NW,305,4.0,5.0,93,0.00,,,0.07,Wunderground v.1.15,2013-05-04 13:38:00,
2013-05-04 08:44:00,37.6,35.8,29.87,WNW,288,3.0,4.0,93,0.00,,,0.07,Wunderground v.1.15,2013-05-04 13:44:00,
2013-05-04 08:49:00,37.9,36.1,29.87,WNW,294,1.0,4.0,93,0.00,,,0.07,Wunderground v.1.15,2013-05-04 13:49:00,
2013-05-04 08:54:00,37.9,35.8,29.87,West,271,2.0,5.0,92,0.00,,,0.07,Wunderground v.1.15,2013-05-04 13:54:00,
2013-05-04 08:59:00,38.0,35.9,29.88,SW,224,1.0,5.0,92,0.00,,,0.07,Wunderground v.1.15,2013-05-04 13:59:00,
2013-05-04 09:04:00,38.1,36.0,29.88,WNW,284,1.0,4.0,92,0.00,,,0.07,Wunderground v.1.15,2013-05-04 14:04:00,
2013-05-04 09:09:00,38.2,36.1,29.88,West,267,2.0,4.0,92,0.00,,,0.07,Wunderground v.1.15,2013-05-04 14:09:00,
2013-05-04 09:14:00,38.3,35.9,29.88,WNW,284,1.0,3.0,91,0.00,,,0.07,Wunderground v.1.15,2013-05-04 14:14:00,
2013-05-04 09:18:00,38.2,35.8,29.87,West,281,1.0,3.0,91,0.00,,,0.07,Wunderground v.1.15,2013-05-04 14:18:00,
2013-05-04 09:23:00,38.5,36.4,29.88,WSW,255,0.0,2.0,92,0.00,,,0.07,Wunderground v.1.15,2013-05-04 14:23:00,
2013-05-04 09:28:00,38.7,36.3,29.87,West,279,1.0,3.0,91,0.00,,,0.07,Wunderground v.1.15,2013-05-04 14:28:00,
2013-05-04 09:33:00,38.6,35.9,29.88,WSW,257,1.0,3.0,90,0.00,,,0.07,Wunderground v.1.15,2013-05-04 14:33:00,
2013-05-04 09:38:00,38.5,35.8,29.88,WNW,284,0.0,4.0,90,0.00,,,0.07,Wunderground v.1.15,2013-05-04 14:38:00,
2013-05-04 09:43:00,38.6,35.9,29.88,NW,306,1.0,1.0,90,0.00,,,0.07,Wunderground v.1.15,2013-05-04 14:43:00,
2013-05-04 09:48:00,38.5,35.8,29.88,WNW,286,0.0,2.0,90,0.00,,,0.07,Wunderground v.1.15,2013-05-04 14:48:00,
2013-05-04 09:53:00,38.7,36.3,29.88,West,266,0.0,2.0,91,0.00,,,0.07,Wunderground v.1.15,2013-05-04 14:53:00,
2013-05-04 09:58:00,38.8,36.4,29.88,ENE,59,1.0,2.0,91,0.00,,,0.07,Wunderground v.1.15,2013-05-04 14:58:00,
2013-05-04 10:03:00,38.7,36.3,29.88,ENE,58,2.0,3.0,91,0.00,,,0.07,Wunderground v.1.15,2013-05-04 15:03:00,
2013-05-04 10:08:00,38.6,36.2,29.88,ENE,73,1.0,3.0,91,0.00,,,0.07,Wunderground v.1.15,2013-05-04 15:08:00,
2013-05-04 10:13:00,38.7,36.3,29.88,NE,47,0.0,1.0,91,0.00,,,0.07,Wunderground v.1.15,2013-05-04 15:13:00,
2013-05-04 10:18:00,38.9,36.5,29.88,East,101,0.0,3.0,91,0.00,,,0.07,Wunderground v.1.15,2013-05-04 15:18:00,
2013-05-04 10:23:00,39.1,36.7,29.88,ENE,73,1.0,2.0,91,0.00,,,0.07,Wunderground v.1.15,2013-05-04 15:23:00,
2013-05-04 10:28:00,39.4,37.0,29.88,NW,321,1.0,2.0,91,0.00,,,0.07,Wunderground v.1.15,2013-05-04 15:28:00,
2013-05-04 10:33:00,39.7,37.3,29.88,NE,51,0.0,1.0,91,0.00,,,0.08,Wunderground v.1.15,2013-05-04 15:33:00,
2013-05-04 10:38:00,39.5,36.8,29.89,NE,53,1.0,4.0,90,0.00,,,0.08,Wunderground v.1.15,2013-05-04 15:38:00,
2013-05-04 10:44:00,39.1,36.7,29.89,NE,35,2.0,2.0,91,0.00,,,0.08,Wunderground v.1.15,2013-05-04 15:44:00,
2013-05-04 10:49:00,39.1,36.7,29.89,NE,53,1.0,2.0,91,0.00,,,0.08,Wunderground v.1.15,2013-05-04 15:49:00,
2013-05-04 10:54:00,39.4,37.3,29.89,NW,323,0.0,2.0,92,0.00,,,0.08,Wunderground v.1.15,2013-05-04 15:54:00,
2013-05-04 10:59:00,39.5,37.1,29.89,NE,54,0.0,3.0,91,0.00,,,0.08,Wunderground v.1.15,2013-05-04 15:59:00,
2013-05-04 11:04:00,39.5,37.4,29.89,East,85,0.0,2.0,92,0.00,,,0.09,Wunderground v.1.15,2013-05-04 16:04:00,
2013-05-04 11:09:00,39.5,37.1,29.89,North,357,1.0,3.0,91,0.00,,,0.09,Wunderground v.1.15,2013-05-04 16:09:00,
2013-05-04 11:14:00,39.6,37.2,29.89,NNE,16,0.0,1.0,91,0.00,,,0.09,Wunderground v.1.15,2013-05-04 16:14:00,
2013-05-04 11:19:00,39.8,37.4,29.89,NW,311,0.0,2.0,91,0.00,,,0.09,Wunderground v.1.15,2013-05-04 16:19:00,
2013-05-04 11:24:00,39.9,37.5,29.89,NNW,328,0.0,1.0,91,0.00,,,0.10,Wunderground v.1.15,2013-05-04 16:24:00,
2013-05-04 11:29:00,40.3,37.9,29.89,ENE,73,0.0,1.0,91,0.00,,,0.10,Wunderground v.1.15,2013-05-04 16:29:00,
2013-05-04 11:34:00,40.8,38.7,29.89,ESE,115,0.0,2.0,92,0.00,,,0.10,Wunderground v.1.15,2013-05-04 16:34:00,
2013-05-04 11:39:00,41.1,38.1,29.89,SW,225,3.0,3.0,89,0.00,,,0.10,Wunderground v.1.15,2013-05-04 16:39:00,
2013-05-04 11:44:00,41.1,38.4,29.89,NE,44,2.0,5.0,90,0.00,,,0.10,Wunderground v.1.15,2013-05-04 16:44:00,
2013-05-04 11:49:00,40.5,37.2,29.89,NE,41,1.0,5.0,88,0.00,,,0.10,Wunderground v.1.15,2013-05-04 16:49:00,
2013-05-04 11:54:00,40.4,37.7,29.90,East,79,1.0,2.0,90,0.00,,,0.10,Wunderground v.1.15,2013-05-04 16:54:00,
2013-05-04 11:59:00,40.4,37.7,29.90,ENE,71,2.0,2.0,90,0.00,,,0.10,Wunderground v.1.15,2013-05-04 16:59:00,
2013-05-04 12:04:00,40.7,38.3,29.90,NE,40,2.0,2.0,91,0.00,,,0.10,Wunderground v.1.15,2013-05-04 17:04:00,
2013-05-04 12:09:00,40.7,38.0,29.90,NW,314,1.0,3.0,90,0.00,,,0.10,Wunderground v.1.15,2013-05-04 17:09:00,
2013-05-04 12:14:00,40.9,37.9,29.90,NNW,330,1.0,2.0,89,0.00,,,0.10,Wunderground v.1.15,2013-05-04 17:14:00,
2013-05-04 12:19:00,40.8,37.8,29.90,North,10,2.0,4.0,89,0.00,,,0.10,Wunderground v.1.15,2013-05-04 17:19:00,
2013-05-04 12:24:00,41.0,38.0,29.90,NNE,16,1.0,4.0,89,0.00,,,0.10,Wunderground v.1.15,2013-05-04 17:24:00,
2013-05-04 12:29:00,41.1,38.1,29.90,NE,44,1.0,4.0,89,0.00,,,0.10,Wunderground v.1.15,2013-05-04 17:29:00,
2013-05-04 12:34:00,41.0,38.0,29.90,NNE,20,2.0,2.0,89,0.00,,,0.10,Wunderground v.1.15,2013-05-04 17:34:00,
2013-05-04 12:39:00,40.9,37.9,29.90,East,81,2.0,3.0,89,0.00,,,0.10,Wunderground v.1.15,2013-05-04 17:39:00,
2013-05-04 12:44:00,40.8,37.8,29.90,NE,39,1.0,3.0,89,0.00,,,0.10,Wunderground v.1.15,2013-05-04 17:44:00,
2013-05-04 12:49:00,41.2,38.5,29.90,NNW,347,1.0,3.0,90,0.00,,,0.10,Wunderground v.1.15,2013-05-04 17:49:00,
2013-05-04 12:54:00,41.4,38.4,29.90,NE,34,0.0,2.0,89,0.00,,,0.10,Wunderground v.1.15,2013-05-04 17:54:00,
2013-05-04 12:59:00,41.4,38.1,29.90,NNW,330,1.0,4.0,88,0.00,,,0.10,Wunderground v.1.15,2013-05-04 17:59:00,
2013-05-04 13:04:00,41.3,37.1,29.90,NNW,329,1.0,4.0,85,0.00,,,0.10,Wunderground v.1.15,2013-05-04 18:04:00,
2013-05-04 13:09:00,41.3,37.1,29.90,NW,323,2.0,5.0,85,0.00,,,0.10,Wunderground v.1.15,2013-05-04 18:09:00,
2013-05-04 13:14:00,41.5,37.6,29.91,NW,321,0.0,3.0,86,0.00,,,0.10,Wunderground v.1.15,2013-05-04 18:14:00,
2013-05-04 13:19:00,41.5,37.0,29.91,NW,321,2.0,5.0,84,0.00,,,0.10,Wunderground v.1.15,2013-05-04 18:19:00,
2013-05-04 13:24:00,41.1,36.6,29.91,WNW,288,3.0,5.0,84,0.00,,,0.10,Wunderground v.1.15,2013-05-04 18:24:00,
2013-05-04 13:29:00,41.2,37.3,29.91,NNE,32,2.0,5.0,86,0.00,,,0.10,Wunderground v.1.15,2013-05-04 18:29:00,
2013-05-04 13:34:00,41.3,36.8,29.91,NE,35,1.0,3.0,84,0.00,,,0.10,Wunderground v.1.15,2013-05-04 18:34:00,
2013-05-04 13:39:00,41.6,37.1,29.91,NNW,332,0.0,3.0,84,0.00,,,0.10,Wunderground v.1.15,2013-05-04 18:39:00,
2013-05-04 13:44:00,42.0,37.8,29.91,WNW,297,1.0,2.0,85,0.00,,,0.10,Wunderground v.1.15,2013-05-04 18:44:00,
2013-05-04 13:49:00,42.5,38.3,29.91,NNE,17,3.0,3.0,85,0.00,,,0.10,Wunderground v.1.15,2013-05-04 18:49:00,
2013-05-04 13:54:00,42.8,38.6,29.91,WNW,291,1.0,5.0,85,0.00,,,0.10,Wunderground v.1.15,2013-05-04 18:54:00,
2013-05-04 13:59:00,43.0,37.6,29.91,West,277,2.0,5.0,81,0.00,,,0.10,Wunderground v.1.15,2013-05-04 18:59:00,
2013-05-04 14:04:00,42.8,37.1,29.91,West,278,2.0,4.0,80,0.00,,,0.10,Wunderground v.1.15,2013-05-04 19:04:00,
2013-05-04 14:09:00,42.5,37.1,29.91,NW,311,3.0,4.0,81,0.00,,,0.10,Wunderground v.1.15,2013-05-04 19:09:00,
2013-05-04 14:14:00,42.3,37.2,29.92,NW,306,1.0,5.0,82,0.00,,,0.10,Wunderground v.1.15,2013-05-04 19:14:00,
2013-05-04 14:19:00,42.0,36.9,29.92,NW,308,4.0,9.0,82,0.00,,,0.10,Wunderground v.1.15,2013-05-04 19:19:00,
2013-05-04 14:24:00,41.7,37.2,29.92,North,358,1.0,4.0,84,0.00,,,0.10,Wunderground v.1.15,2013-05-04 19:24:00,
2013-05-04 14:29:00,41.7,37.5,29.92,NW,316,1.0,4.0,85,0.00,,,0.10,Wunderground v.1.15,2013-05-04 19:29:00,
2013-05-04 14:34:00,41.8,37.0,29.92,West,266,1.0,3.0,83,0.00,,,0.10,Wunderground v.1.15,2013-05-04 19:34:00,
2013-05-04 14:39:00,41.9,37.1,29.92,WNW,295,0.0,3.0,83,0.00,,,0.10,Wunderground v.1.15,2013-05-04 19:39:00,
2013-05-04 14:44:00,42.3,37.8,29.92,SW,229,0.0,4.0,84,0.00,,,0.10,Wunderground v.1.15,2013-05-04 19:44:00,
2013-05-04 14:49:00,42.4,37.3,29.92,WNW,301,2.0,4.0,82,0.00,,,0.10,Wunderground v.1.15,2013-05-04 19:49:00,
2013-05-04 14:54:00,42.5,37.4,29.92,NW,304,4.0,6.0,82,0.00,,,0.10,Wunderground v.1.15,2013-05-04 19:54:00,
2013-05-04 14:59:00,42.8,36.7,29.92,WNW,300,3.0,6.0,79,0.00,,,0.10,Wunderground v.1.15,2013-05-04 19:59:00,
2013-05-04 15:04:00,43.2,38.4,29.92,WSW,255,5.0,5.0,83,0.00,,,0.10,Wunderground v.1.15,2013-05-04 20:04:00,
2013-05-04 15:09:00,43.5,37.7,29.92,NW,306,1.0,5.0,80,0.00,,,0.10,Wunderground v.1.15,2013-05-04 20:09:00,
2013-05-04 15:14:00,43.1,37.0,29.92,NW,318,1.0,7.0,79,0.00,,,0.10,Wunderground v.1.15,2013-05-04 20:14:00,
2013-05-04 15:19:00,42.8,37.4,29.92,NW,320,3.0,8.0,81,0.00,,,0.10,Wunderground v.1.15,2013-05-04 20:19:00,
2013-05-04 15:24:00,42.1,37.0,29.92,WNW,299,6.0,8.0,82,0.00,,,0.10,Wunderground v.1.15,2013-05-04 20:24:00,
2013-05-04 15:29:00,41.7,36.9,29.93,NE,44,1.0,8.0,83,0.00,,,0.10,Wunderground v.1.15,2013-05-04 20:29:00,
2013-05-04 15:34:00,41.9,37.1,29.92,WSW,255,0.0,3.0,83,0.00,,,0.10,Wunderground v.1.15,2013-05-04 20:34:00,
2013-05-04 15:39:00,42.5,37.4,29.92,NE,51,0.0,3.0,82,0.00,,,0.10,Wunderground v.1.15,2013-05-04 20:39:00,
2013-05-04 15:44:00,43.0,37.3,29.92,West,264,1.0,3.0,80,0.00,,,0.10,Wunderground v.1.15,2013-05-04 20:44:00,
2013-05-04 15:49:00,43.5,37.7,29.92,WNW,299,2.0,3.0,80,0.00,,,0.10,Wunderground v.1.15,2013-05-04 20:49:00,
2013-05-04 15:54:00,44.0,37.9,29.92,NE,52,0.0,2.0,79,0.00,,,0.10,Wunderground v.1.15,2013-05-04 20:54:00,
2013-05-04 15:59:00,44.4,38.0,29.92,WNW,299,3.0,3.0,78,0.00,,,0.10,Wunderground v.1.15,2013-05-04 20:59:00,
2013-05-04 16:04:00,44.3,37.5,29.93,NNW,330,1.0,5.0,77,0.00,,,0.10,Wunderground v.1.15,2013-05-04 21:04:00,
2013-05-04 16:09:00,44.0,37.6,29.93,NNW,330,1.0,5.0,78,0.00,,,0.10,Wunderground v.1.15,2013-05-04 21:09:00,
2013-05-04 16:14:00,43.7,37.0,29.93,NNE,27,0.0,6.0,77,0.00,,,0.10,Wunderground v.1.15,2013-05-04 21:14:00,
2013-05-04 16:19:00,43.6,36.5,29.93,NW,321,1.0,6.0,76,0.00,,,0.10,Wunderground v.1.15,2013-05-04 21:19:00,
2013-05-04 16:24:00,43.6,36.5,29.93,NNW,348,1.0,3.0,76,0.00,,,0.10,Wunderground v.1.15,2013-05-04 21:24:00,
2013-05-04 16:29:00,43.7,37.0,29.93,NW,317,1.0,3.0,77,0.00,,,0.10,Wunderground v.1.15,2013-05-04 21:29:00,
2013-05-04 16:34:00,43.9,37.5,29.93,West,275,1.0,1.0,78,0.00,,,0.10,Wunderground v.1.15,2013-05-04 21:34:00,
2013-05-04 16:39:00,43.9,37.2,29.93,WNW,300,1.0,3.0,77,0.00,,,0.10,Wunderground v.1.15,2013-05-04 21:39:00,
2013-05-04 16:44:00,44.2,37.4,29.93,NNE,17,0.0,1.0,77,0.00,,,0.10,Wunderground v.1.15,2013-05-04 21:44:00,
2013-05-04 16:49:00,44.5,37.4,29.93,West,265,0.0,1.0,76,0.00,,,0.10,Wunderground v.1.15,2013-05-04 21:49:00,
2013-05-04 16:54:00,44.5,37.7,29.94,West,263,1.0,1.0,77,0.00,,,0.10,Wunderground v.1.15,2013-05-04 21:54:00,
2013-05-04 16:59:00,44.5,37.7,29.93,ESE,110,0.0,3.0,77,0.00,,,0.10,Wunderground v.1.15,2013-05-04 21:59:00,
2013-05-04 17:04:00,44.4,37.3,29.94,ENE,64,2.0,2.0,76,0.00,,,0.10,Wunderground v.1.15,2013-05-04 22:04:00,
2013-05-04 17:09:00,44.6,37.5,29.94,NW,313,0.0,3.0,76,0.00,,,0.10,Wunderground v.1.15,2013-05-04 22:09:00,
2013-05-04 17:14:00,44.7,37.3,29.94,WNW,300,1.0,5.0,75,0.00,,,0.10,Wunderground v.1.15,2013-05-04 22:14:00,
2013-05-04 17:19:00,44.5,37.1,29.94,WNW,293,2.0,5.0,75,0.00,,,0.10,Wunderground v.1.15,2013-05-04 22:19:00,
2013-05-04 17:24:00,44.3,36.9,29.94,NNE,18,1.0,6.0,75,0.00,,,0.10,Wunderground v.1.15,2013-05-04 22:24:00,
2013-05-04 17:29:00,44.1,37.3,29.94,NNW,335,2.0,6.0,77,0.00,,,0.10,Wunderground v.1.15,2013-05-04 22:29:00,
2013-05-04 17:34:00,44.0,37.3,29.94,NW,321,0.0,2.0,77,0.00,,,0.10,Wunderground v.1.15,2013-05-04 22:34:00,
2013-05-04 17:39:00,43.9,37.5,29.94,North,357,0.0,2.0,78,0.00,,,0.10,Wunderground v.1.15,2013-05-04 22:39:00,
2013-05-04 17:44:00,43.9,37.2,29.94,ENE,76,1.0,2.0,77,0.00,,,0.10,Wunderground v.1.15,2013-05-04 22:44:00,
2013-05-04 17:49:00,44.0,37.3,29.95,WNW,300,2.0,3.0,77,0.00,,,0.10,Wunderground v.1.15,2013-05-04 22:49:00,
2013-05-04 17:54:00,44.1,37.0,29.95,NNW,328,1.0,3.0,76,0.00,,,0.10,Wunderground v.1.15,2013-05-04 22:54:00,
2013-05-04 17:59:00,45.5,38.7,29.94,NW,306,1.0,3.0,77,0.00,,,0.10,Wunderground v.1.15,2013-05-04 22:59:00,
2013-05-04 18:04:00,46.8,38.2,29.94,NW,306,3.0,4.0,72,0.00,,,0.10,Wunderground v.1.15,2013-05-04 23:04:00,
2013-05-04 18:09:00,47.3,38.4,29.95,WNW,300,2.0,5.0,71,0.00,,,0.10,Wunderground v.1.15,2013-05-04 23:09:00,
2013-05-04 18:14:00,48.1,39.1,29.95,WNW,301,3.0,4.0,71,0.00,,,0.10,Wunderground v.1.15,2013-05-04 23:14:00,
2013-05-04 18:19:00,48.3,39.0,29.95,NW,321,1.0,6.0,70,0.00,,,0.10,Wunderground v.1.15,2013-05-04 23:19:00,
2013-05-04 18:24:00,47.9,37.8,29.95,NW,312,5.0,6.0,68,0.00,,,0.10,Wunderground v.1.15,2013-05-04 23:24:00,
2013-05-04 18:29:00,46.7,36.7,29.95,NW,307,3.0,7.0,68,0.00,,,0.10,Wunderground v.1.15,2013-05-04 23:29:00,
2013-05-04 18:34:00,46.1,37.6,29.95,NNW,328,1.0,4.0,72,0.00,,,0.10,Wunderground v.1.15,2013-05-04 23:34:00,
2013-05-04 18:39:00,46.0,37.8,29.95,ENE,59,4.0,4.0,73,0.00,,,0.10,Wunderground v.1.15,2013-05-04 23:39:00,
2013-05-04 18:44:00,45.6,36.7,29.95,NW,305,2.0,5.0,71,0.00,,,0.10,Wunderground v.1.15,2013-05-04 23:44:00,
2013-05-04 18:49:00,45.6,37.1,29.96,NE,56,1.0,5.0,72,0.00,,,0.10,Wunderground v.1.15,2013-05-04 23:49:00,
2013-05-04 18:54:00,46.0,37.8,29.96,NNW,343,1.0,5.0,73,0.00,,,0.10,Wunderground v.1.15,2013-05-04 23:54:00,
2013-05-04 18:59:00,46.2,37.3,29.96,NW,320,1.0,6.0,71,0.00,,,0.10,Wunderground v.1.15,2013-05-04 23:59:00,
2013-05-04 19:04:00,46.4,37.5,29.96,ENE,73,2.0,6.0,71,0.00,,,0.10,Wunderground v.1.15,2013-05-05 00:04:00,
2013-05-04 19:09:00,46.4,37.5,29.96,NNW,345,2.0,8.0,71,0.00,,,0.10,Wunderground v.1.15,2013-05-05 00:09:00,
2013-05-04 19:14:00,46.4,37.9,29.96,NNE,33,1.0,4.0,72,0.00,,,0.10,Wunderground v.1.15,2013-05-05 00:14:00,
2013-05-04 19:19:00,46.5,38.3,29.96,NE,44,1.0,4.0,73,0.00,,,0.10,Wunderground v.1.15,2013-05-05 00:19:00,
2013-05-04 19:24:00,46.1,37.9,29.96,North,1,1.0,3.0,73,0.00,,,0.10,Wunderground v.1.15,2013-05-05 00:24:00,
2013-05-04 19:29:00,46.0,37.8,29.96,NNE,15,2.0,4.0,73,0.00,,,0.10,Wunderground v.1.15,2013-05-05 00:29:00,
2013-05-04 19:34:00,45.7,38.2,29.96,NNE,23,0.0,2.0,75,0.00,,,0.10,Wunderground v.1.15,2013-05-05 00:34:00,
2013-05-04 19:39:00,45.4,37.9,29.96,NNE,25,1.0,2.0,75,0.00,,,0.10,Wunderground v.1.15,2013-05-05 00:39:00,
2013-05-04 19:44:00,45.1,37.6,29.97,NNW,347,0.0,1.0,75,0.00,,,0.10,Wunderground v.1.15,2013-05-05 00:44:00,
2013-05-04 19:49:00,44.8,37.4,29.97,NE,38,0.0,2.0,75,0.00,,,0.10,Wunderground v.1.15,2013-05-05 00:49:00,
2013-05-04 19:54:00,44.5,37.7,29.97,NE,41,1.0,2.0,77,0.00,,,0.10,Wunderground v.1.15,2013-05-05 00:54:00,
2013-05-04 19:59:00,44.2,37.8,29.97,NW,319,1.0,2.0,78,0.00,,,0.10,Wunderground v.1.15,2013-05-05 00:59:00,
2013-05-04 20:04:00,44.0,37.3,29.97,NW,326,1.0,3.0,77,0.00,,,0.10,Wunderground v.1.15,2013-05-05 01:04:00,
2013-05-04 20:09:00,43.8,37.4,29.98,NNW,329,0.0,3.0,78,0.00,,,0.10,Wunderground v.1.15,2013-05-05 01:09:00,
2013-05-04 20:14:00,43.6,37.5,29.98,NE,39,0.0,2.0,79,0.00,,,0.10,Wunderground v.1.15,2013-05-05 01:14:00,
2013-05-04 20:19:00,43.5,37.4,29.98,NE,37,0.0,2.0,79,0.00,,,0.10,Wunderground v.1.15,2013-05-05 01:19:00,
2013-05-04 20:24:00,43.2,37.4,29.98,NW,314,0.0,1.0,80,0.00,,,0.10,Wunderground v.1.15,2013-05-05 01:24:00,
2013-05-04 20:29:00,42.9,37.5,29.98,ENE,75,0.0,1.0,81,0.00,,,0.10,Wunderground v.1.15,2013-05-05 01:29:00,
2013-05-04 20:34:00,42.5,37.4,29.98,ENE,75,0.0,0.0,82,0.00,,,0.10,Wunderground v.1.15,2013-05-05 01:34:00,
2013-05-04 20:39:00,42.1,36.7,29.98,ENE,62,1.0,3.0,81,0.00,,,0.10,Wunderground v.1.15,2013-05-05 01:39:00,
2013-05-04 20:44:00,42.0,36.9,29.98,ENE,60,0.0,1.0,82,0.00,,,0.10,Wunderground v.1.15,2013-05-05 01:44:00,
2013-05-04 20:49:00,41.9,36.5,29.98,NNE,26,0.0,5.0,81,0.00,,,0.10,Wunderground v.1.15,2013-05-05 01:49:00,
2013-05-04 20:54:00,41.8,36.4,29.98,NW,321,0.0,2.0,81,0.00,,,0.10,Wunderground v.1.15,2013-05-05 01:54:00,
2013-05-04 20:59:00,41.7,36.3,29.98,NNE,18,0.0,2.0,81,0.00,,,0.10,Wunderground v.1.15,2013-05-05 01:59:00,
2013-05-04 21:04:00,41.7,36.9,29.98,NNE,28,1.0,2.0,83,0.00,,,0.10,Wunderground v.1.15,2013-05-05 02:04:00,
2013-05-04 21:09:00,41.6,36.8,29.99,NE,51,0.0,2.0,83,0.00,,,0.10,Wunderground v.1.15,2013-05-05 02:09:00,
2013-05-04 21:14:00,41.2,36.4,29.99,East,82,1.0,1.0,83,0.00,,,0.10,Wunderground v.1.15,2013-05-05 02:14:00,
2013-05-04 21:19:00,40.9,36.4,29.99,East,82,0.0,1.0,84,0.00,,,0.10,Wunderground v.1.15,2013-05-05 02:19:00,
2013-05-04 21:24:00,40.7,36.5,30.00,East,82,1.0,1.0,85,0.00,,,0.10,Wunderground v.1.15,2013-05-05 02:24:00,
2013-05-04 21:29:00,40.4,36.8,30.00,East,101,0.0,1.0,87,0.00,,,0.10,Wunderground v.1.15,2013-05-05 02:29:00,
2013-05-04 21:34:00,40.1,36.8,30.00,East,101,0.0,1.0,88,0.00,,,0.10,Wunderground v.1.15,2013-05-05 02:34:00,
2013-05-04 21:39:00,40.0,36.7,30.00,ESE,120,1.0,1.0,88,0.00,,,0.10,Wunderground v.1.15,2013-05-05 02:39:00,
2013-05-04 21:44:00,39.7,36.4,30.00,South,169,0.0,2.0,88,0.00,,,0.10,Wunderground v.1.15,2013-05-05 02:44:00,
2013-05-04 21:49:00,39.4,36.4,30.00,SSW,193,0.0,2.0,89,0.00,,,0.10,Wunderground v.1.15,2013-05-05 02:49:00,
2013-05-04 21:54:00,39.0,36.0,30.00,South,188,0.0,0.0,89,0.00,,,0.10,Wunderground v.1.15,2013-05-05 02:54:00,
2013-05-04 21:59:00,38.6,35.9,30.01,SW,215,1.0,1.0,90,0.00,,,0.10,Wunderground v.1.15,2013-05-05 02:59:00,
2013-05-04 22:04:00,38.2,35.8,30.01,SW,219,1.0,1.0,91,0.00,,,0.10,Wunderground v.1.15,2013-05-05 03:04:00,
2013-05-04 22:09:00,37.9,35.5,30.01,SW,219,0.0,1.0,91,0.00,,,0.10,Wunderground v.1.15,2013-05-05 03:09:00,
2013-05-04 22:14:00,37.6,35.5,30.01,SW,219,0.0,0.0,92,0.00,,,0.10,Wunderground v.1.15,2013-05-05 03:14:00,
2013-05-04 22:19:00,37.4,35.3,30.01,SW,219,0.0,0.0,92,0.00,,,0.10,Wunderground v.1.15,2013-05-05 03:19:00,
2013-05-04 22:24:00,37.0,34.9,30.01,SW,222,0.0,0.0,92,0.00,,,0.10,Wunderground v.1.15,2013-05-05 03:24:00,
2013-05-04 22:29:00,36.7,34.6,30.02,SSW,209,0.0,0.0,92,0.00,,,0.10,Wunderground v.1.15,2013-05-05 03:29:00,
2013-05-04 22:34:00,36.5,34.7,30.02,SSW,209,0.0,0.0,93,0.00,,,0.10,Wunderground v.1.15,2013-05-05 03:34:00,
2013-05-04 22:39:00,36.3,34.5,30.02,SSW,208,0.0,1.0,93,0.00,,,0.10,Wunderground v.1.15,2013-05-05 03:39:00,
2013-05-04 22:44:00,36.2,34.4,30.02,SSW,208,0.0,1.0,93,0.00,,,0.10,Wunderground v.1.15,2013-05-05 03:44:00,
2013-05-04 22:49:00,36.2,34.6,30.02,SSW,211,0.0,1.0,94,0.00,,,0.10,Wunderground v.1.15,2013-05-05 03:49:00,
2013-05-04 22:54:00,36.2,34.6,30.02,WSW,242,0.0,2.0,94,0.00,,,0.10,Wunderground v.1.15,2013-05-05 03:54:00,
2013-05-04 22:59:00,36.1,34.5,30.02,WSW,241,0.0,2.0,94,0.00,,,0.10,Wunderground v.1.15,2013-05-05 03:59:00,
2013-05-04 23:01:00,36.0,34.4,30.02,WSW,242,0.0,0.0,94,0.00,,,0.10,Wunderground v.1.15,2013-05-05 04:01:00,
2013-05-04 23:06:00,35.9,34.3,30.02,WSW,242,0.0,0.0,94,0.00,,,0.10,Wunderground v.1.15,2013-05-05 04:06:00,
2013-05-04 23:11:00,35.7,34.1,30.02,WSW,241,0.0,0.0,94,0.00,,,0.10,Wunderground v.1.15,2013-05-05 04:11:00,
2013-05-04 23:16:00,35.7,34.1,30.02,WSW,241,0.0,0.0,94,0.00,,,0.10,Wunderground v.1.15,2013-05-05 04:16:00,
2013-05-04 23:21:00,35.8,34.5,30.02,WSW,243,1.0,1.0,95,0.00,,,0.10,Wunderground v.1.15,2013-05-05 04:21:00,
2013-05-04 23:26:00,35.9,34.6,30.02,ESE,117,1.0,1.0,95,0.00,,,0.10,Wunderground v.1.15,2013-05-05 04:26:00,
2013-05-04 23:31:00,35.8,34.5,30.02,SW,222,0.0,0.0,95,0.00,,,0.10,Wunderground v.1.15,2013-05-05 04:31:00,
2013-05-04 23:36:00,35.7,34.4,30.02,SW,222,0.0,0.0,95,0.00,,,0.10,Wunderground v.1.15,2013-05-05 04:36:00,
2013-05-04 23:41:00,35.5,34.2,30.02,SW,222,0.0,0.0,95,0.00,,,0.10,Wunderground v.1.15,2013-05-05 04:41:00,
2013-05-04 23:46:00,35.2,33.9,30.02,SW,222,0.0,0.0,95,0.00,,,0.10,Wunderground v.1.15,2013-05-05 04:46:00,
2013-05-04 23:51:00,35.2,33.9,30.02,SW,222,0.0,0.0,95,0.00,,,0.10,Wunderground v.1.15,2013-05-05 04:51:00,
2013-05-04 23:56:00,35.2,33.9,30.02,SW,222,0.0,0.0,95,0.00,,,0.10,Wunderground v.1.15,2013-05-05 04:56:00,